CAPE
0 0 1 2 1 0 0 1 4 5 4 5 2 1 1 2 4 0 0 0 0 0 0 0 0 0 0 0 0 0 0 0 0 0 0 0 0 0 0 0 0 0 0 0 1349
3 3 4 5 5 4 2 1 1 4 7 4 4 1 1 1 0 0 0 0 0 0 0 0 0 0 0 0 0 0 0 0 0 0 0 0 0 0 0 0 0 0 0 65 1388
4 4 3 4 5 1 4 4 2 3 4 6 7 1 1 0 0 0 0 0 0 0 0 0 0 0 0 0 0 0 0 0 0 0 0 0 0 0 0 0 0 0 0 0 565
4 5 2 1 1 1 1 2 4 6 3 3 3 4 0 0 0 0 0 0 0 0 0 0 0 0 0 0 0 0 0 0 0 0 0 0 0 0 0 0 0 0 0 0 0
1 0 1 3 1 2 2 4 3 2 1 1 6 3 0 0 0 0 0 0 0 0 0 0 0 0 0 0 0 0 0 0 0 0 0 0 0 0 0 0 0 0 0 0 0
1 1 1 3 2 3 2 9 13 11 3 2 9 8 0 0 0 0 0 0 0 0 0 0 0 0 0 0 0 0 0 0 0 0 0 0 0 0 0 0 0 0 0 0 0
2 1 1 1 9 12 15 15 16 13 8 2 14 3 0 0 0 0 0 0 0 0 0 0 0 0 0 0 0 0 0 0 0 0 0 0 0 0 0 0 0 0 0 0 0
7 5 1 3 3 10 17 18 20 13 7 5 10 1 0 0 0 0 0 0 0 0 0 0 0 0 0 0 0 0 0 0 0 0 0 0 0 0 0 0 0 0 0 0 0
1 1 2 4 4 9 21 19 7 2 1 15 2 0 0 0 0 0 0 0 0 0 0 0 0 0 0 0 0 0 0 0 0 0 0 0 0 0 0 0 0 0 0 0 0
1 2 3 8 5 14 19 6 0 6 7 2 2 0 0 0 0 0 0 0 0 0 0 0 0 0 0 0 0 0 0 0 0 0 0 0 0 0 0 0 0 0 0 3 0
1 3 7 1 3 12 12 0 0 1 4 0 0 0 0 0 0 0 0 0 0 0 0 0 0 0 0 0 0 0 0 0 0 0 0 0 0 0 0 0 0 0 0 0 0
1 2 2 1 3 8 6 0 0 0 0 0 0 0 0 0 0 0 0 0 0 0 0 0 0 0 0 0 0 0 0 0 0 0 0 0 0 0 0 0 0 0 0 0 0
1 0 4 5 4 0 0 0 0 0 0 0 0 0 0 0 0 0 0 0 0 0 0 0 0 0 0 0 0 0 0 0 0 0 0 0 0 0 0 0 0 0 0 0 0
0 0 4 9 0 0 0 0 0 0 0 0 0 0 0 0 0 0 0 0 0 0 0 0 0 0 0 0 0 0 0 0 0 0 0 0 0 0 0 0 0 0 0 0 0
3 1 2 13 0 0 0 0 0 0 0 0 0 0 0 0 0 0 0 0 0 0 0 0 0 0 0 0 0 0 0 0 0 0 0 0 0 0 0 0 0 0 0 0 0
4 4 6 2 1 0 0 0 0 0 0 0 0 0 0 0 0 0 0 0 0 0 0 0 0 0 0 0 0 0 0 0 0 0 0 0 0 0 0 0 0 0 0 0 0
7 9 2 4 0 0 0 0 0 0 0 11 0 0 0 0 0 0 0 0 0 0 0 0 0 0 0 0 0 0 0 0 0 0 0 0 0 0 0 0 0 0 0 0 0
3 2 0 0 0 0 0 0 1 0 0 60 0 0 0 0 0 0 0 0 0 0 0 0 0 0 0 0 0 0 0 0 0 0 0 0 0 0 0 0 0 0 0 0 0
1 0 0 0 0 0 0 3 0 1 89 4 0 0 0 0 0 0 0 0 0 0 0 0 0 0 0 0 0 0 0 0 0 0 0 0 0 0 0 0 0 0 0 0 0
3 0 0 0 0 0 0 0 1 52 162 0 0 0 0 0 0 0 0 0 0 0 0 0 0 0 0 0 0 0 0 0 0 0 0 0 0 0 0 0 0 0 0 0 0
0 0 0 0 0 6 34 44 61 111 145 17 1 6 0 0 0 0 0 21 0 0 0 0 0 0 0 0 3 0 0 0 0 0 0 0 0 0 0 0 0 0 0 0 0
1 0 0 0 32 26 68 101 151 221 225 39 0 0 0 0 0 0 0 0 0 0 0 0 0 0 0 0 0 0 0 0 1 0 0 0 0 0 0 0 0 0 0 0 0
0 0 0 5 44 39 26 90 208 319 224 79 2 0 0 0 0 0 0 0 0 0 0 0 0 0 0 0 0 0 0 0 0 0 0 0 0 0 0 0 0 0 0 0 0
12 0 0 0 0 2 6 0 88 182 100 23 0 0 0 0 0 0 0 0 0 0 0 0 0 0 0 0 0 0 0 0 0 0 0 0 0 0 0 0 0 0 0 0 0
4 0 13 2 7 6 24 9 49 49 48 0 6 0 0 0 0 0 0 0 0 0 0 0 0 0 0 0 0 0 0 0 0 0 1 0 0 0 0 0 0 0 0 0 0
14 47 19 0 8 36 6 0 4 71 0 0 5 0 0 0 0 0 0 0 0 0 0 0 0 0 0 0 0 0 0 0 0 0 0 0 0 0 0 0 0 0 0 0 0
33 21 62 9 3 3 29 4 2 5 0 0 0 0 0 0 0 0 0 0 0 0 0 0 0 0 0 0 0 0 0 0 0 0 0 0 0 0 0 0 0 0 0 0 0
CIN
0 0 0 0 0 0 0 0 0 0 0 0 0 0 0 0 0 0 0 0 0 0 0 0 0 0 0 0 0 0 0 0 0 0 0 0 0 0 0 0 0 0 0 0 -250
0 0 0 0 0 0 0 0 0 0 0 0 0 0 -1 0 0 0 0 0 0 0 0 0 0 0 0 0 0 0 0 0 0 0 0 0 0 0 0 0 0 0 0 -182 -234
0 0 0 0 0 0 0 0 0 0 0 0 0 0 0 0 0 0 0 0 0 0 0 0 0 0 0 0 0 0 0 0 0 0 0 0 0 0 0 0 0 0 0 0 -233
0 0 0 -1 -1 0 0 0 0 0 0 0 0 0 0 0 0 0 0 0 0 0 0 0 0 0 0 0 0 0 0 0 0 0 0 0 0 0 0 0 0 0 0 0 0
-1 0 -1 0 0 -1 0 0 0 0 0 0 0 -1 0 0 0 0 0 0 0 0 0 0 0 0 0 0 0 0 0 0 0 0 0 0 0 0 0 0 0 0 0 0 0
0 0 0 0 0 -1 0 0 -1 -1 0 0 -1 -2 0 0 0 0 0 0 0 0 0 0 0 0 0 0 0 0 0 0 0 0 0 0 0 0 0 0 0 0 0 0 0
0 0 0 0 0 0 0 -2 -4 -2 0 -1 0 0 0 0 0 0 0 0 0 0 0 0 0 0 0 0 0 0 0 0 0 0 0 0 0 0 0 0 0 0 0 0 0
0 0 -1 -1 -1 0 0 0 0 -1 0 0 0 0 0 0 0 0 0 0 0 0 0 0 0 0 0 0 0 0 0 0 0 0 0 0 0 0 0 0 0 0 0 0 0
0 0 0 0 0 0 0 0 0 -1 -3 0 -1 0 0 0 0 0 0 0 0 0 0 0 0 0 0 0 0 0 0 0 0 0 0 0 0 0 0 0 0 0 0 0 0
0 0 0 0 0 0 0 -2 0 -3 0 0 0 0 0 0 0 0 0 0 0 0 0 0 0 0 0 0 0 0 0 0 0 0 0 0 0 0 0 0 0 0 0 -58 0
-1 0 0 0 0 0 0 0 0 0 0 0 0 0 0 0 0 0 0 0 0 0 0 0 0 0 0 0 0 0 0 0 0 0 0 0 0 0 0 0 0 0 0 0 0
0 0 0 0 0 0 0 0 0 0 0 0 0 0 0 0 0 0 0 0 0 0 0 0 0 0 0 0 0 0 0 0 0 0 0 0 0 0 0 0 0 0 0 0 0
0 0 0 0 0 0 0 0 0 0 0 0 0 0 0 0 0 0 0 0 0 0 0 0 0 0 0 0 0 0 0 0 0 0 0 0 0 0 0 0 0 0 0 0 0
0 0 0 0 0 0 0 0 0 0 0 0 0 0 0 0 0 0 0 0 0 0 0 0 0 0 0 0 0 0 0 0 0 0 0 0 0 0 0 0 0 0 0 0 0
0 0 -1 0 0 0 0 0 0 0 0 0 0 0 0 0 0 0 0 0 0 0 0 0 0 0 0 0 0 0 0 0 0 0 0 0 0 0 0 0 0 0 0 0 0
0 0 0 0 -1 0 0 0 0 0 0 0 0 0 0 0 0 0 0 0 0 0 0 0 0 0 0 0 0 0 0 0 0 0 0 0 0 0 0 0 0 0 0 0 0
0 0 0 -1 0 0 0 0 0 0 0 -26 0 0 0 0 0 0 0 0 0 0 0 0 0 0 0 0 0 0 0 0 0 0 0 0 0 0 0 0 0 0 0 0 0
0 0 0 0 0 0 0 0 -4 0 0 -51 0 0 0 0 0 0 0 0 0 0 0 0 0 0 0 0 0 0 0 0 0 0 0 0 0 0 0 0 0 0 0 0 0
0 0 0 0 0 0 0 -8 0 -91 -51 -82 0 0 0 0 0 0 0 0 0 0 0 0 0 0 0 0 0 0 0 0 0 0 0 0 0 0 0 0 0 0 0 0 0
0 0 0 0 0 0 0 0 -51 -121 -51 0 0 0 0 0 0 0 0 0 0 0 0 0 0 0 0 -10 -15 0 0 0 0 0 0 0 0 0 0 0 0 0 0 0 0
0 0 0 0 0 -162 -26 -67 -87 -69 -39 -58 -58 -28 0 0 0 0 0 -92 0 0 0 0 0 0 0 -7 -45 0 0 0 0 0 0 0 0 0 0 0 0 0 0 0 0
-2 0 0 0 -129 -142 -46 -70 -23 -17 -32 -58 0 -3 0 0 0 0 0 -3 0 0 0 0 0 0 0 0 0 0 0 0 -2 0 0 0 0 0 0 0 0 0 0 0 0
0 0 0 -188 -55 -64 -89 -74 -26 -17 -37 -39 -62 0 0 0 0 0 0 0 0 0 0 0 0 0 0 0 0 0 0 0 0 0 0 0 0 0 0 0 0 0 0 0 0
0 0 0 0 0 -40 -77 0 -22 -59 -109 -176 0 0 0 0 0 0 0 0 0 0 0 0 0 0 0 0 0 0 0 0 0 0 0 0 0 0 0 0 0 0 0 0 0
-1 0 -17 -7 -36 -65 -32 -55 -40 -10 -57 -60 -167 0 0 0 0 0 0 0 0 0 0 0 0 0 0 0 0 0 0 0 0 0 -4 0 0 0 0 0 0 0 0 0 0
-3 0 -3 -1 -29 -25 -38 0 -96 -42 0 0 -136 0 0 0 0 0 0 0 0 0 0 0 0 0 0 0 0 0 0 0 0 0 0 0 0 0 0 0 0 0 0 0 0
-8 -19 -1 -1 -4 -8 -5 -58 0 0 0 0 0 0 0 0 0 0 0 0 0 0 0 0 0 0 0 0 0 0 0 0 0 0 0 0 0 0 0 0 0 0 0 0 0
Wind_Speed
17 16 15 14 14 13 12 12 12 12 13 14 13 10 10 10 11 1 10 14 13 15 10 7 5 5 4 0 2 4 2 4 7 8 5 3 5 5 6 5 2 3 5 5 13
16 17 17 17 16 15 15 13 12 12 13 13 13 11 10 11 4 12 14 11 7 14 5 6 5 7 4 2 1 4 5 9 8 4 5 5 2 6 6 9 4 4 6 5 12
17 17 17 17 18 17 16 15 14 13 12 12 13 10 9 7 4 9 3 18 17 8 5 2 7 5 4 3 4 2 3 5 2 5 6 5 6 2 3 4 7 4 6 1 3
18 18 19 19 19 18 18 16 16 15 15 12 11 9 7 1 4 3 7 18 17 8 7 5 4 6 5 6 4 2 6 5 6 10 7 4 5 5 6 9 7 3 2 5 7
19 19 20 19 19 19 18 17 18 18 15 13 11 7 3 2 12 5 2 17 10 7 10 7 6 6 7 5 4 4 7 4 8 11 9 7 20 5 9 13 8 7 10 1 10
19 20 20 20 20 20 20 17 16 16 16 13 10 5 3 6 4 2 10 15 10 7 7 8 10 7 5 4 6 7 12 16 10 9 3 7 8 4 11 10 1 3 10 6 6
19 21 21 21 19 18 17 17 17 14 15 12 9 6 5 16 8 6 5 6 10 6 7 2 3 4 4 4 7 4 5 3 13 16 7 7 9 19 11 10 4 5 13 15 15
18 18 20 21 21 20 19 19 18 15 13 11 6 4 11 5 2 1 6 4 6 2 3 7 5 3 3 5 3 4 4 3 9 7 9 12 13 10 12 12 9 7 8 12 17
20 20 20 20 20 20 19 20 19 8 6 7 5 4 13 7 5 7 9 6 8 3 4 4 7 4 3 0 4 4 4 7 9 11 6 14 7 10 11 10 14 17 13 15 9
21 21 21 22 21 17 14 16 10 3 9 6 2 1 7 5 4 6 7 12 6 9 1 2 2 3 3 4 6 4 4 4 5 3 9 10 11 14 13 12 20 17 18 14 18
23 23 22 24 22 17 8 4 2 2 6 13 9 6 2 5 2 5 8 7 4 5 6 6 5 7 14 13 4 3 3 5 5 6 7 10 6 11 10 8 7 10 12 16 13
22 23 24 24 24 20 3 4 7 2 9 20 15 10 5 2 4 5 13 8 7 7 4 2 7 11 8 7 6 6 4 7 9 2 4 8 10 10 5 9 10 13 9 7 7
23 24 23 24 27 1 4 9 1 6 4 7 9 7 7 9 8 7 11 6 5 7 7 7 7 5 6 4 5 7 7 5 6 2 2 3 5 5 5 3 5 4 5 8 10
23 23 21 22 2 2 6 4 6 5 3 6 5 8 7 6 5 8 8 7 3 9 8 6 6 6 5 6 8 7 7 6 5 3 4 2 4 4 3 3 2 2 5 7 8
22 22 21 10 10 4 4 3 4 2 5 4 4 3 5 9 4 4 6 4 8 6 7 7 3 2 4 8 7 9 4 3 2 4 3 5 5 6 2 2 1 3 4 4 4
23 23 21 7 5 12 6 7 2 3 10 4 6 7 6 4 3 3 4 3 5 6 3 7 2 3 7 4 5 6 6 8 5 3 2 2 6 7 2 1 2 2 5 6 7
26 25 20 9 7 4 5 4 3 6 5 5 6 6 6 6 5 5 6 6 7 5 5 2 4 5 6 3 2 6 7 3 3 3 6 4 3 9 2 4 5 9 8 8 8
30 32 10 10 12 7 2 3 7 7 7 4 5 5 9 6 6 7 7 6 4 4 3 6 3 6 4 6 8 4 5 8 7 5 4 3 4 6 5 7 5 6 8 6 7
31 4 4 5 9 7 3 6 9 7 5 2 2 4 4 5 5 5 8 10 9 9 6 5 2 2 4 1 4 4 2 4 8 3 3 3 4 5 4 5 8 8 7 5 6
10 7 5 3 12 3 3 8 6 5 5 3 6 4 8 6 8 8 9 5 6 9 6 4 3 1 3 1 5 3 6 4 4 5 4 4 3 5 3 6 5 6 4 3 5
3 6 4 7 5 0 5 7 7 12 6 6 6 2 1 4 8 6 10 1 4 2 6 6 4 3 1 1 5 2 2 6 6 4 5 2 6 5 7 5 8 6 4 6 7
4 6 1 3 2 4 6 5 6 7 3 5 7 4 8 5 4 4 4 3 5 3 6 2 4 4 3 2 2 1 3 5 5 5 2 4 7 4 8 6 8 7 8 7 8
7 6 6 1 3 3 4 5 7 6 3 2 4 1 1 3 5 4 4 2 3 2 5 6 2 3 3 5 4 1 1 4 5 4 7 6 6 0 7 5 3 10 6 5 5
3 6 5 4 2 4 2 8 10 2 2 2 2 8 4 3 6 5 4 4 2 3 7 5 5 5 7 5 4 5 5 4 5 4 4 5 4 2 3 5 4 4 6 6 5
2 4 3 4 4 5 3 5 5 4 2 3 3 3 11 5 3 4 3 2 6 8 5 4 4 2 1 2 2 1 3 5 6 5 6 4 6 4 4 6 5 5 5 5 4
2 3 4 6 8 6 3 4 8 7 7 3 6 4 8 3 3 7 5 1 2 6 4 4 3 2 1 1 2 4 6 7 6 4 5 6 5 5 3 7 5 6 5 3 2
2 3 2 5 5 4 2 4 6 9 7 6 9 8 7 2 4 5 5 5 5 5 3 3 5 3 2 3 3 6 12 11 6 6 9 8 10 6 4 7 5 4 4 2 4
Wind_Direction
343 342 340 337 336 335 333 333 330 327 327 332 324 315 314 317 315 268 236 220 194 241 177 114 78 131 89 345 128 129 91 204 198 184 253 324 11 322 289 249 96 74 300 282 120
341 339 336 337 337 335 332 330 327 324 323 328 326 316 317 322 284 245 237 205 171 161 112 137 129 124 85 181 219 140 164 203 193 195 221 262 235 339 358 339 346 19 6 22 137
337 336 334 333 332 331 332 327 327 323 320 321 322 314 314 343 317 252 255 192 189 168 137 107 119 109 111 135 202 168 210 176 258 207 212 241 272 198 266 274 262 92 351 130 171
332 331 331 330 328 327 326 323 323 321 315 313 315 310 306 166 294 34 123 172 167 139 119 121 104 110 131 187 210 233 221 179 232 244 259 257 272 193 226 242 216 150 109 310 174
330 328 327 325 323 321 319 317 318 316 311 307 302 291 281 179 249 262 217 170 158 142 153 144 136 136 162 191 171 228 238 227 227 235 247 244 250 259 234 245 269 13 321 62 291
328 326 326 324 322 320 318 315 310 310 304 298 287 255 248 243 211 254 114 138 165 145 158 149 172 181 163 196 179 209 223 239 241 252 236 240 273 229 227 224 141 137 291 343 315
327 325 325 323 320 317 315 310 308 305 302 289 276 202 255 241 136 65 137 167 166 164 150 144 117 143 165 214 233 227 247 222 235 238 236 181 269 244 234 266 156 237 251 288 277
326 325 324 324 322 320 315 309 305 298 285 271 211 204 254 259 226 187 160 122 170 30 62 107 77 340 222 314 296 222 145 219 256 192 235 166 253 255 234 201 194 184 235 273 274
327 324 322 317 321 320 316 311 315 298 225 186 149 204 264 324 220 189 159 163 129 111 319 85 126 220 350 352 323 253 220 221 303 182 175 183 233 251 246 195 205 217 213 203 259
323 321 313 316 319 320 319 316 294 65 120 151 193 279 259 238 192 168 178 140 134 114 95 141 141 173 30 120 229 232 243 240 229 303 187 185 222 221 251 197 206 189 207 196 206
321 317 314 321 321 317 321 1 296 214 219 198 192 237 255 279 232 175 157 153 125 136 168 178 148 197 218 219 250 238 260 277 253 216 136 219 222 224 226 201 183 194 208 207 219
319 318 320 322 321 317 189 199 230 238 287 224 235 259 280 51 310 234 138 143 148 189 179 137 220 218 216 218 216 240 266 270 275 274 150 150 232 253 233 208 191 197 205 201 172
321 321 322 322 319 102 228 225 301 349 263 272 190 211 215 156 206 245 156 151 150 170 180 181 236 135 179 233 212 225 193 237 247 341 103 66 321 334 230 142 128 119 140 164 174
320 317 320 325 21 322 249 252 253 199 305 260 225 252 167 183 233 198 170 141 187 186 166 218 240 241 291 250 188 252 196 217 261 140 210 61 261 310 347 107 81 104 123 172 168
316 313 317 320 296 251 227 49 113 103 319 211 179 133 153 160 163 223 174 101 171 180 129 233 209 221 238 225 170 229 153 148 95 107 85 333 76 252 325 110 321 346 75 111 93
312 304 310 294 232 233 282 337 102 53 248 249 142 162 139 199 204 109 136 118 160 173 199 216 235 205 221 239 199 150 74 51 49 70 69 225 125 296 268 204 178 104 120 124 124
312 305 299 253 232 179 210 147 81 209 296 202 188 160 174 174 189 154 157 167 173 147 213 218 224 235 206 244 101 75 83 14 356 10 216 339 64 233 288 303 215 153 152 160 150
314 310 258 212 215 253 334 80 203 226 240 267 165 144 177 158 209 186 159 184 198 156 135 173 250 186 195 197 187 151 153 151 190 190 231 3 225 252 287 268 164 143 147 141 150
320 300 263 253 191 166 169 196 204 197 235 271 133 147 219 197 157 144 181 204 192 176 174 158 272 309 50 15 129 189 123 162 103 30 75 229 273 323 29 59 126 144 145 130 80
318 307 270 328 164 159 105 236 227 234 360 333 235 186 186 202 162 166 168 201 193 184 152 237 138 102 310 342 53 144 153 74 11 140 221 283 270 233 175 164 151 65 65 99 97
318 321 265 127 151 331 205 244 265 275 268 203 254 121 240 175 175 185 186 81 138 132 146 150 123 259 54 180 173 65 90 58 104 123 155 172 256 225 210 158 135 145 77 105 96
315 315 19 176 120 187 204 197 262 279 327 266 213 174 183 280 116 119 119 33 341 115 132 64 138 162 173 55 2 17 160 128 140 216 213 154 259 334 146 146 135 136 137 136 136
314 276 297 33 255 234 305 283 263 261 265 278 307 251 14 134 111 123 105 8 13 99 163 172 63 106 6 355 16 183 178 108 109 73 190 155 257 93 81 89 150 142 143 115 102
288 309 306 29 333 332 67 273 259 258 175 247 62 30 296 79 24 120 114 32 1 85 68 95 140 160 190 195 156 164 158 149 132 140 187 216 240 279 89 157 142 124 116 107 83
212 263 342 321 323 305 255 277 324 302 347 41 36 9 293 111 68 91 74 84 42 359 45 83 130 131 141 113 103 172 174 184 190 183 178 212 207 237 233 184 159 123 110 90 62
249 308 340 293 297 304 350 343 330 352 353 277 130 34 313 124 173 180 124 87 123 24 58 2 139 110 117 99 238 252 243 234 215 210 238 231 249 215 120 105 139 140 117 86 11
306 302 280 290 313 332 337 -0 299 302 303 358 144 110 343 26 74 89 83 108 140 128 105 79 124 93 244 356 7 301 231 220 200 201 188 206 219 162 161 150 160 150 122 100 325